This is the latest recevied weather packets stored in our database for station/object KM4LTG. If no packets are shown the sender has not sent any weather packets the latest 10 day(s).
| Time | Temp. | Humidity | Pressure | Rain* | Wind** | Luminosity | Snow |
|---|---|---|---|---|---|---|---|
| 1777479301 | 28.89° C | 58% | 1018.3 hPa | 0 mm | - | - | - |
| 1777479056 | 28.89° C | 58% | 1018.3 hPa | 0 mm | - | - | - |
| 1777478802 | 28.89° C | 58% | 1018.4 hPa | 0 mm | - | - | - |
| 1777478556 | 29.44° C | 58% | 1018.5 hPa | 0 mm | - | - | - |
| 1777478287 | 28.89° C | 58% | 1018.6 hPa | 0 mm | - | - | - |
| 1777478001 | 28.89° C | 59% | 1018.7 hPa | 0 mm | - | - | - |
| 1777477741 | 28.89° C | 59% | 1018.6 hPa | 0 mm | - | - | - |
| 1777477496 | 28.89° C | 53% | 1018.7 hPa | 0 mm | - | - | - |
| 1777477256 | 28.89° C | 53% | 1018.7 hPa | 0 mm | - | - | - |
| 1777476958 | 28.89° C | 57% | 1018.6 hPa | 0 mm | - | - | - |
| 1777476666 | 28.89° C | 56% | 1018.5 hPa | 0 mm | - | - | - |
| 1777476427 | 28.89° C | 56% | 1018.5 hPa | 0 mm | - | - | - |
| 1777476131 | 28.89° C | 59% | 1018.5 hPa | 0 mm | - | - | - |
| 1777475872 | 28.33° C | 58% | 1018.4 hPa | 0 mm | - | - | - |
| 1777475615 | 27.78° C | 60% | 1018.4 hPa | 0 mm | - | - | - |
| 1777475317 | 27.78° C | 61% | 1018.4 hPa | 0 mm | - | - | - |
| 1777475056 | 27.78° C | 64% | 1018.3 hPa | 0 mm | - | - | - |
| 1777474812 | 27.78° C | 65% | 1018.2 hPa | 0 mm | - | - | - |
| 1777474516 | 27.78° C | 62% | 1018.3 hPa | 0 mm | - | - | - |
| 1777474216 | 27.78° C | 65% | 1018.4 hPa | 0 mm | - | - | - |
| 1777473924 | 27.78° C | 65% | 1018.4 hPa | 0 mm | - | - | - |
| 1777473633 | 27.78° C | 64% | 1018.4 hPa | 0 mm | - | - | - |
| 1777473368 | 27.22° C | 66% | 1018.6 hPa | 0 mm | - | - | - |
| 1777473096 | 27.22° C | 67% | 1018.6 hPa | 0 mm | - | - | - |
| 1777472796 | 26.67° C | 70% | 1018.6 hPa | 0 mm | - | - | - |
* Rain latest hour (hover to see other rain measurements)
** Current wind speed in m/s (hover to see current wind gust speed)